Private Wetterstation Wechselburg
Wetterdaten: Donnerstag, 04.03.2021
Datum Zeit Temp. +2m Bodentemp. Temp.+5cm Temp. Wind Windchill X Diff Temp. Feuchte +2m Feuchte +5cm Luftdruck Regen Wind Richtung Richtung Sonnenschein Taupunkt Windchill Windben
04.03.2021 00:00 6,0 C 6,9 C 4,1 C 5,8 C 5,3 C 0,0 C 79 % 86 % 1025,1 hPa 0,0 l/m 0,0 km/h (0 Bft) NO 45 0 min 2,6 C 5,3 C 0,0 km/h (0 Bft)
04.03.2021 00:05 6,0 C 6,9 C 4,1 C 5,8 C 5,3 C 0,0 C 79 % 86 % 1025,1 hPa 0,0 l/m 0,0 km/h (0 Bft) NO 45 0 min 2,6 C 5,3 C 0,0 km/h (0 Bft)
04.03.2021 00:11 5,9 C 6,9 C 3,9 C 5,7 C 5,3 C 0,0 C 79 % 86 % 1024,7 hPa 0,0 l/m 0,0 km/h (0 Bft) N 0 0 min 2,5 C 5,3 C 0,0 km/h (0 Bft)
04.03.2021 00:24 5,9 C 6,9 C 4,1 C 5,7 C 5,4 C 0,0 C 79 % 87 % 1024,7 hPa 0,0 l/m 0,0 km/h (0 Bft) NO 45 0 min 2,5 C 5,4 C 0,0 km/h (0 Bft)
04.03.2021 00:25 5,9 C 6,9 C 4,1 C 5,7 C 5,4 C 0,0 C 79 % 87 % 1024,7 hPa 0,0 l/m 0,0 km/h (0 Bft) NO 45 0 min 2,5 C 5,4 C 0,0 km/h (0 Bft)
04.03.2021 00:30 5,9 C 6,9 C 3,9 C 5,7 C 5,3 C 0,0 C 79 % 86 % 1024,5 hPa 0,0 l/m 0,0 km/h (0 Bft) NO 45 0 min 2,5 C 5,3 C 0,0 km/h (0 Bft)
04.03.2021 00:35 5,9 C 6,9 C 3,9 C 5,7 C 5,2 C 0,0 C 79 % 87 % 1024,5 hPa 0,0 l/m 0,0 km/h (0 Bft) NO 45 0 min 2,5 C 5,2 C 0,0 km/h (0 Bft)
04.03.2021 00:40 5,9 C 6,9 C 4,0 C 5,7 C 5,3 C 0,0 C 79 % 87 % 1024,5 hPa 0,0 l/m 0,0 km/h (0 Bft) NO 45 0 min 2,5 C 5,3 C 0,0 km/h (0 Bft)
04.03.2021 00:45 5,8 C 6,9 C 3,9 C 5,6 C 5,2 C 0,0 C 79 % 87 % 1024,5 hPa 0,0 l/m 0,0 km/h (0 Bft) NO 45 0 min 2,4 C 5,2 C 0,0 km/h (0 Bft)
04.03.2021 00:50 5,7 C 6,9 C 3,9 C 5,5 C 5,1 C 0,0 C 80 % 87 % 1024,7 hPa 0,0 l/m 0,0 km/h (0 Bft) NO 45 0 min 2,5 C 5,1 C 0,0 km/h (0 Bft)
04.03.2021 00:55 5,9 C 6,8 C 4,1 C 5,7 C 5,2 C 0,0 C 80 % 87 % 1024,7 hPa 0,0 l/m 0,0 km/h (0 Bft) SO 135 0 min 2,7 C 5,2 C 0,0 km/h (0 Bft)
04.03.2021 01:00 5,9 C 6,8 C 4,1 C 5,7 C 5,2 C 0,0 C 80 % 87 % 1024,7 hPa 0,0 l/m 0,0 km/h (0 Bft) SO 135 0 min 2,7 C 5,2 C 0,0 km/h (0 Bft)
04.03.2021 01:05 5,8 C 6,8 C 4,0 C 5,6 C 5,2 C 0,0 C 80 % 87 % 1024,7 hPa 0,0 l/m 0,0 km/h (0 Bft) SO 135 0 min 2,6 C 5,2 C 0,0 km/h (0 Bft)
04.03.2021 01:10 5,6 C 6,8 C 3,8 C 5,4 C 5,1 C 0,0 C 80 % 86 % 1024,7 hPa 0,0 l/m 0,0 km/h (0 Bft) SO 135 0 min 2,4 C 5,1 C 0,0 km/h (0 Bft)
04.03.2021 01:15 5,6 C 6,8 C 3,7 C 5,4 C 5,1 C 0,0 C 80 % 87 % 1024,7 hPa 0,0 l/m 0,0 km/h (0 Bft) SO 135 0 min 2,4 C 5,1 C 0,0 km/h (0 Bft)
04.03.2021 01:20 5,6 C 6,8 C 3,8 C 5,5 C 5,2 C 0,0 C 80 % 88 % 1024,7 hPa 0,0 l/m 0,0 km/h (0 Bft) SO 135 0 min 2,4 C 5,2 C 0,0 km/h (0 Bft)
04.03.2021 01:25 5,6 C 6,8 C 3,9 C 5,5 C 5,3 C 0,0 C 80 % 87 % 1024,7 hPa 0,0 l/m 0,0 km/h (0 Bft) SO 135 0 min 2,4 C 5,3 C 0,0 km/h (0 Bft)
04.03.2021 01:30 5,6 C 6,8 C 4,0 C 5,5 C 5,3 C 0,0 C 80 % 88 % 1024,3 hPa 0,0 l/m 0,0 km/h (0 Bft) N 360 0 min 2,4 C 5,3 C 0,0 km/h (0 Bft)
04.03.2021 01:35 5,7 C 6,8 C 4,0 C 5,6 C 5,4 C 0,0 C 80 % 88 % 1024,3 hPa 0,0 l/m 0,0 km/h (0 Bft) O-NO 67 0 min 2,5 C 5,4 C 0,0 km/h (0 Bft)
04.03.2021 01:40 5,7 C 6,8 C 3,8 C 5,6 C 5,3 C 0,0 C 80 % 87 % 1024,3 hPa 0,0 l/m 0,0 km/h (0 Bft) O-NO 67 0 min 2,5 C 5,3 C 0,0 km/h (0 Bft)
04.03.2021 01:45 5,7 C 6,8 C 3,9 C 5,6 C 5,3 C 0,0 C 80 % 87 % 1024,3 hPa 0,0 l/m 0,0 km/h (0 Bft) O-NO 67 0 min 2,5 C 5,3 C 0,0 km/h (0 Bft)
04.03.2021 01:50 5,5 C 6,8 C 3,8 C 5,4 C 5,1 C 0,0 C 80 % 87 % 1024,1 hPa 0,0 l/m 0,0 km/h (0 Bft) NO 45 0 min 2,3 C 5,1 C 0,0 km/h (0 Bft)
04.03.2021 01:55 5,5 C 6,8 C 3,8 C 5,4 C 5,1 C 0,0 C 81 % 88 % 1024,1 hPa 0,0 l/m 0,0 km/h (0 Bft) O-NO 67 0 min 2,5 C 5,1 C 0,0 km/h (0 Bft)
04.03.2021 02:00 5,5 C 6,8 C 3,9 C 5,4 C 5,1 C 0,0 C 81 % 88 % 1024,1 hPa 0,0 l/m 0,0 km/h (0 Bft) O-NO 67 0 min 2,5 C 5,1 C 0,0 km/h (0 Bft)
04.03.2021 02:05 5,5 C 6,8 C 3,9 C 5,4 C 5,1 C 0,0 C 81 % 88 % 1024,1 hPa 0,0 l/m 0,0 km/h (0 Bft) O-NO 67 0 min 2,5 C 5,1 C 0,0 km/h (0 Bft)
04.03.2021 02:10 5,5 C 6,8 C 4,0 C 5,4 C 5,2 C 0,0 C 81 % 88 % 1023,8 hPa 0,0 l/m 0,0 km/h (0 Bft) O-NO 67 0 min 2,5 C 5,2 C 0,0 km/h (0 Bft)
04.03.2021 02:15 5,5 C 6,8 C 4,1 C 5,4 C 5,3 C 0,0 C 81 % 88 % 1023,8 hPa 0,0 l/m 0,0 km/h (0 Bft) O-NO 67 0 min 2,5 C 5,3 C 0,0 km/h (0 Bft)
04.03.2021 02:20 5,6 C 6,8 C 4,1 C 5,5 C 5,4 C 0,0 C 81 % 88 % 1023,8 hPa 0,0 l/m 0,0 km/h (0 Bft) O-NO 67 0 min 2,6 C 5,4 C 0,0 km/h (0 Bft)
04.03.2021 02:25 5,5 C 6,8 C 4,1 C 5,5 C 5,4 C 0,0 C 81 % 88 % 1023,8 hPa 0,0 l/m 0,0 km/h (0 Bft) O-NO 67 0 min 2,5 C 5,4 C 0,0 km/h (0 Bft)
04.03.2021 02:30 5,6 C 6,8 C 4,2 C 5,5 C 5,4 C 0,0 C 81 % 88 % 1023,8 hPa 0,0 l/m 0,0 km/h (0 Bft) O-NO 67 0 min 2,6 C 5,4 C 0,0 km/h (0 Bft)
04.03.2021 02:35 5,7 C 6,8 C 4,2 C 5,6 C 5,3 C 0,0 C 81 % 88 % 1023,8 hPa 0,0 l/m 0,0 km/h (0 Bft) O-NO 67 0 min 2,7 C 5,3 C 0,0 km/h (0 Bft)
04.03.2021 02:40 5,7 C 6,8 C 4,6 C 5,6 C 5,4 C 0,0 C 81 % 88 % 1023,8 hPa 0,0 l/m 0,0 km/h (0 Bft) O-SO 112 0 min 2,7 C 5,4 C 0,0 km/h (0 Bft)
04.03.2021 02:45 5,8 C 6,8 C 4,5 C 5,7 C 5,4 C 0,0 C 81 % 87 % 1023,8 hPa 0,0 l/m 0,0 km/h (0 Bft) O-SO 112 0 min 2,8 C 5,4 C 0,0 km/h (0 Bft)
04.03.2021 02:50 5,7 C 6,7 C 4,3 C 5,6 C 5,3 C 0,0 C 81 % 87 % 1023,8 hPa 0,0 l/m 0,0 km/h (0 Bft) O-SO 112 0 min 2,7 C 5,3 C 0,0 km/h (0 Bft)
04.03.2021 02:55 5,7 C 6,7 C 4,2 C 5,5 C 5,2 C 0,0 C 81 % 87 % 1023,8 hPa 0,0 l/m 0,0 km/h (0 Bft) O-SO 112 0 min 2,7 C 5,2 C 0,0 km/h (0 Bft)
04.03.2021 03:00 5,7 C 6,8 C 4,0 C 5,5 C 5,1 C 0,0 C 81 % 87 % 1023,8 hPa 0,0 l/m 0,0 km/h (0 Bft) O-SO 112 0 min 2,7 C 5,1 C 0,0 km/h (0 Bft)
04.03.2021 03:05 5,6 C 6,8 C 3,9 C 5,4 C 5,1 C 0,0 C 81 % 87 % 1023,8 hPa 0,0 l/m 0,0 km/h (0 Bft) O-SO 112 0 min 2,6 C 5,1 C 0,0 km/h (0 Bft)
04.03.2021 03:10 5,7 C 6,7 C 3,9 C 5,5 C 5,1 C 0,0 C 81 % 88 % 1023,1 hPa 0,0 l/m 0,0 km/h (0 Bft) O-SO 112 0 min 2,7 C 5,1 C 0,0 km/h (0 Bft)
04.03.2021 03:15 5,7 C 6,7 C 4,1 C 5,5 C 5,2 C 0,0 C 81 % 88 % 1023,1 hPa 0,0 l/m 0,0 km/h (0 Bft) O-SO 112 0 min 2,7 C 5,2 C 0,0 km/h (0 Bft)
04.03.2021 03:20 5,7 C 6,7 C 3,9 C 5,5 C 5,2 C 0,0 C 81 % 87 % 1023,1 hPa 0,0 l/m 0,0 km/h (0 Bft) O-SO 112 0 min 2,7 C 5,2 C 0,0 km/h (0 Bft)
04.03.2021 03:25 5,6 C 6,7 C 3,9 C 5,5 C 5,2 C 0,0 C 81 % 88 % 1023,1 hPa 0,0 l/m 0,0 km/h (0 Bft) O-SO 112 0 min 2,6 C 5,2 C 0,0 km/h (0 Bft)
04.03.2021 03:30 5,6 C 6,7 C 4,0 C 5,5 C 5,2 C 0,0 C 81 % 88 % 1023,0 hPa 0,0 l/m 0,0 km/h (0 Bft) O-SO 112 0 min 2,6 C 5,2 C 0,0 km/h (0 Bft)
04.03.2021 03:35 5,6 C 6,7 C 3,8 C 5,4 C 5,1 C 0,0 C 81 % 87 % 1023,0 hPa 0,0 l/m 0,0 km/h (0 Bft) O-SO 112 0 min 2,6 C 5,1 C 0,0 km/h (0 Bft)
04.03.2021 03:40 5,7 C 6,7 C 3,8 C 5,5 C 5,2 C 0,0 C 81 % 87 % 1023,0 hPa 0,0 l/m 0,0 km/h (0 Bft) O-SO 112 0 min 2,7 C 5,2 C 0,0 km/h (0 Bft)
04.03.2021 03:45 5,6 C 6,7 C 3,9 C 5,5 C 5,2 C 0,0 C 81 % 88 % 1023,0 hPa 0,0 l/m 0,0 km/h (0 Bft) O-SO 112 0 min 2,6 C 5,2 C 0,0 km/h (0 Bft)
04.03.2021 03:50 5,6 C 6,7 C 3,9 C 5,5 C 5,2 C 0,0 C 81 % 87 % 1022,9 hPa 0,0 l/m 0,0 km/h (0 Bft) O-SO 112 0 min 2,6 C 5,2 C 0,0 km/h (0 Bft)
04.03.2021 03:55 5,6 C 6,7 C 3,8 C 5,4 C 5,1 C 0,0 C 81 % 88 % 1022,9 hPa 0,0 l/m 0,0 km/h (0 Bft) O-SO 112 0 min 2,6 C 5,1 C 0,0 km/h (0 Bft)
04.03.2021 04:00 5,5 C 6,7 C 3,8 C 5,4 C 5,1 C 0,0 C 81 % 88 % 1022,9 hPa 0,0 l/m 0,0 km/h (0 Bft) O-SO 112 0 min 2,5 C 5,1 C 0,0 km/h (0 Bft)
04.03.2021 04:05 5,5 C 6,7 C 3,8 C 5,4 C 5,2 C 0,0 C 81 % 88 % 1022,9 hPa 0,0 l/m 0,0 km/h (0 Bft) O-SO 112 0 min 2,5 C 5,2 C 0,0 km/h (0 Bft)
04.03.2021 04:10 5,4 C 6,7 C 3,8 C 5,4 C 5,3 C 0,0 C 81 % 88 % 1022,6 hPa 0,0 l/m 0,0 km/h (0 Bft) O-SO 112 0 min 2,4 C 5,3 C 0,0 km/h (0 Bft)
04.03.2021 04:15 5,5 C 6,7 C 3,8 C 5,5 C 5,4 C 0,0 C 81 % 88 % 1022,6 hPa 0,0 l/m 0,0 km/h (0 Bft) O-SO 112 0 min 2,5 C 5,4 C 0,0 km/h (0 Bft)
04.03.2021 04:20 5,5 C 6,7 C 3,9 C 5,5 C 5,4 C 0,0 C 81 % 88 % 1022,6 hPa 0,0 l/m 0,0 km/h (0 Bft) O-SO 112 0 min 2,5 C 5,4 C 0,0 km/h (0 Bft)
04.03.2021 04:25 5,6 C 6,7 C 3,9 C 5,5 C 5,4 C 0,0 C 81 % 88 % 1022,6 hPa 0,0 l/m 0,0 km/h (0 Bft) O-SO 112 0 min 2,6 C 5,4 C 0,0 km/h (0 Bft)
04.03.2021 04:30 5,5 C 6,7 C 4,2 C 5,5 C 5,4 C 0,0 C 81 % 88 % 1022,3 hPa 0,0 l/m 0,0 km/h (0 Bft) O-SO 112 0 min 2,5 C 5,4 C 0,0 km/h (0 Bft)
04.03.2021 04:35 5,6 C 6,7 C 4,2 C 5,6 C 5,5 C 0,0 C 81 % 88 % 1022,3 hPa 0,0 l/m 0,0 km/h (0 Bft) O-SO 112 0 min 2,6 C 5,5 C 0,0 km/h (0 Bft)
04.03.2021 04:40 5,6 C 6,7 C 4,1 C 5,6 C 5,5 C 0,0 C 81 % 88 % 1022,3 hPa 0,0 l/m 0,0 km/h (0 Bft) O-SO 112 0 min 2,6 C 5,5 C 0,0 km/h (0 Bft)
04.03.2021 04:45 5,6 C 6,7 C 4,1 C 5,6 C 5,5 C 0,0 C 81 % 88 % 1022,3 hPa 0,0 l/m 0,0 km/h (0 Bft) O-SO 112 0 min 2,6 C 5,5 C 0,0 km/h (0 Bft)
04.03.2021 04:50 5,6 C 6,7 C 4,1 C 5,6 C 5,5 C 0,0 C 81 % 88 % 1022,3 hPa 0,0 l/m 0,0 km/h (0 Bft) O-SO 112 0 min 2,6 C 5,5 C 0,0 km/h (0 Bft)
04.03.2021 04:55 5,7 C 6,7 C 4,0 C 5,6 C 5,5 C 0,0 C 81 % 88 % 1022,3 hPa 0,0 l/m 0,0 km/h (0 Bft) O-SO 112 0 min 2,7 C 5,5 C 0,0 km/h (0 Bft)
04.03.2021 05:00 5,6 C 6,7 C 4,0 C 5,5 C 5,4 C 0,0 C 81 % 88 % 1022,3 hPa 0,0 l/m 0,0 km/h (0 Bft) O-SO 112 0 min 2,6 C 5,4 C 0,0 km/h (0 Bft)
04.03.2021 05:05 5,6 C 6,7 C 4,1 C 5,5 C 5,4 C 0,0 C 81 % 88 % 1022,3 hPa 0,0 l/m 0,0 km/h (0 Bft) O-SO 112 0 min 2,6 C 5,4 C 0,0 km/h (0 Bft)
04.03.2021 05:10 5,6 C 6,7 C 4,0 C 5,5 C 5,4 C 0,0 C 81 % 88 % 1022,1 hPa 0,0 l/m 0,0 km/h (0 Bft) O-SO 112 0 min 2,6 C 5,4 C 0,0 km/h (0 Bft)
04.03.2021 05:15 5,5 C 6,7 C 4,0 C 5,5 C 5,4 C 0,0 C 81 % 88 % 1022,1 hPa 0,0 l/m 0,0 km/h (0 Bft) O-SO 112 0 min 2,5 C 5,4 C 0,0 km/h (0 Bft)
04.03.2021 05:20 5,4 C 6,7 C 3,9 C 5,4 C 5,3 C 0,0 C 81 % 88 % 1022,1 hPa 0,0 l/m 0,0 km/h (0 Bft) O-SO 112 0 min 2,4 C 5,3 C 0,0 km/h (0 Bft)
04.03.2021 05:25 5,5 C 6,7 C 4,0 C 5,5 C 5,4 C 0,0 C 81 % 88 % 1022,1 hPa 0,0 l/m 0,0 km/h (0 Bft) O-SO 112 0 min 2,5 C 5,4 C 0,0 km/h (0 Bft)
04.03.2021 05:30 5,5 C 6,7 C 4,0 C 5,5 C 5,4 C 0,0 C 82 % 88 % 1022,1 hPa 0,0 l/m 0,0 km/h (0 Bft) O-SO 112 0 min 2,7 C 5,4 C 0,0 km/h (0 Bft)
04.03.2021 05:35 5,6 C 6,7 C 3,9 C 5,5 C 5,4 C 0,0 C 82 % 88 % 1022,1 hPa 0,0 l/m 0,0 km/h (0 Bft) O-SO 112 0 min 2,8 C 5,4 C 0,0 km/h (0 Bft)
04.03.2021 05:40 5,5 C 6,6 C 4,0 C 5,4 C 5,3 C 0,0 C 82 % 88 % 1022,1 hPa 0,0 l/m 0,0 km/h (0 Bft) O-SO 112 0 min 2,7 C 5,3 C 0,0 km/h (0 Bft)
04.03.2021 05:45 5,5 C 6,6 C 4,0 C 5,4 C 5,2 C 0,0 C 82 % 88 % 1022,1 hPa 0,0 l/m 0,0 km/h (0 Bft) O-SO 112 0 min 2,7 C 5,2 C 0,0 km/h (0 Bft)
04.03.2021 05:50 5,5 C 6,6 C 4,0 C 5,4 C 5,2 C 0,0 C 82 % 88 % 1021,6 hPa 0,0 l/m 0,0 km/h (0 Bft) O-SO 112 0 min 2,7 C 5,2 C 0,0 km/h (0 Bft)
04.03.2021 05:55 5,5 C 6,6 C 3,9 C 5,4 C 5,3 C 0,0 C 82 % 88 % 1021,6 hPa 0,0 l/m 0,0 km/h (0 Bft) O-SO 112 0 min 2,7 C 5,3 C 0,0 km/h (0 Bft)
04.03.2021 06:00 5,5 C 6,6 C 4,0 C 5,4 C 5,3 C 0,0 C 82 % 88 % 1021,6 hPa 0,0 l/m 0,0 km/h (0 Bft) O-SO 112 0 min 2,7 C 5,3 C 0,0 km/h (0 Bft)
04.03.2021 06:05 5,5 C 6,6 C 4,2 C 5,5 C 5,4 C 0,0 C 82 % 88 % 1021,6 hPa 0,0 l/m 0,0 km/h (0 Bft) O-SO 112 0 min 2,7 C 5,4 C 0,0 km/h (0 Bft)
04.03.2021 06:10 5,6 C 6,6 C 4,4 C 5,6 C 5,6 C 0,0 C 82 % 89 % 1021,4 hPa 0,0 l/m 0,0 km/h (0 Bft) S 180 0 min 2,8 C 5,6 C 0,0 km/h (0 Bft)
04.03.2021 06:15 5,6 C 6,6 C 4,5 C 5,6 C 5,6 C 0,0 C 82 % 88 % 1021,4 hPa 0,0 l/m 0,0 km/h (0 Bft) S 180 0 min 2,8 C 5,6 C 0,0 km/h (0 Bft)
04.03.2021 06:20 5,7 C 6,6 C 4,6 C 5,7 C 5,7 C 0,0 C 82 % 88 % 1021,4 hPa 0,0 l/m 0,0 km/h (0 Bft) SO 135 0 min 2,9 C 5,7 C 0,0 km/h (0 Bft)
04.03.2021 06:25 5,9 C 6,6 C 4,7 C 5,9 C 5,8 C 0,0 C 82 % 88 % 1021,4 hPa 0,0 l/m 0,0 km/h (0 Bft) SO 135 0 min 3,1 C 5,8 C 0,0 km/h (0 Bft)
04.03.2021 06:30 5,9 C 6,6 C 4,7 C 5,9 C 5,9 C 0,0 C 82 % 88 % 1021,6 hPa 0,0 l/m 0,0 km/h (0 Bft) SO 135 0 min 3,1 C 5,9 C 0,0 km/h (0 Bft)
04.03.2021 06:35 5,9 C 6,6 C 4,7 C 5,9 C 5,9 C 0,0 C 83 % 88 % 1021,6 hPa 0,0 l/m 0,0 km/h (0 Bft) SO 135 0 min 3,2 C 5,9 C 0,0 km/h (0 Bft)
04.03.2021 06:40 5,9 C 6,6 C 4,6 C 5,8 C 5,7 C 0,0 C 82 % 88 % 1021,6 hPa 0,0 l/m 0,0 km/h (0 Bft) SO 135 0 min 3,1 C 5,7 C 0,0 km/h (0 Bft)
04.03.2021 06:45 5,9 C 6,6 C 4,5 C 5,8 C 5,7 C 0,0 C 82 % 88 % 1021,6 hPa 0,0 l/m 0,0 km/h (0 Bft) SO 135 0 min 3,1 C 5,7 C 0,0 km/h (0 Bft)
04.03.2021 06:50 5,8 C 6,6 C 4,4 C 5,7 C 5,6 C 0,0 C 82 % 88 % 1021,1 hPa 0,0 l/m 0,0 km/h (0 Bft) SO 135 0 min 3,0 C 5,6 C 0,0 km/h (0 Bft)
04.03.2021 06:55 5,7 C 6,6 C 4,3 C 5,7 C 5,6 C 0,0 C 82 % 88 % 1021,1 hPa 0,0 l/m 0,0 km/h (0 Bft) SO 135 0 min 2,9 C 5,6 C 0,0 km/h (0 Bft)
04.03.2021 07:00 5,7 C 6,6 C 4,3 C 5,7 C 5,6 C 0,0 C 83 % 89 % 1021,1 hPa 0,0 l/m 0,0 km/h (0 Bft) SO 135 0 min 3,0 C 5,6 C 0,0 km/h (0 Bft)
04.03.2021 07:05 5,8 C 6,6 C 4,4 C 5,8 C 5,7 C 0,0 C 83 % 89 % 1021,1 hPa 0,0 l/m 0,0 km/h (0 Bft) SO 135 0 min 3,1 C 5,7 C 0,0 km/h (0 Bft)
04.03.2021 07:10 5,9 C 6,6 C 4,5 C 5,9 C 5,9 C 0,0 C 83 % 89 % 1020,9 hPa 0,0 l/m 0,0 km/h (0 Bft) SO 135 0 min 3,2 C 5,9 C 0,0 km/h (0 Bft)
04.03.2021 07:15 5,9 C 6,6 C 4,5 C 6,0 C 6,0 C 0,1 C 83 % 89 % 1020,9 hPa 0,0 l/m 0,0 km/h (0 Bft) SO 135 0 min 3,2 C 6,0 C 0,0 km/h (0 Bft)
04.03.2021 07:20 6,0 C 6,6 C 4,8 C 6,1 C 6,1 C 0,1 C 83 % 89 % 1020,9 hPa 0,0 l/m 0,0 km/h (0 Bft) SO 135 0 min 3,3 C 6,1 C 0,0 km/h (0 Bft)
04.03.2021 07:25 6,1 C 6,7 C 4,8 C 6,2 C 6,2 C 0,1 C 83 % 89 % 1020,9 hPa 0,0 l/m 0,0 km/h (0 Bft) SO 135 0 min 3,4 C 6,2 C 0,0 km/h (0 Bft)
04.03.2021 07:30 6,1 C 6,6 C 4,9 C 6,3 C 6,3 C 0,2 C 83 % 89 % 1020,9 hPa 0,0 l/m 0,0 km/h (0 Bft) SO 135 0 min 3,4 C 6,3 C 0,0 km/h (0 Bft)
04.03.2021 07:35 6,1 C 6,6 C 4,8 C 6,2 C 6,2 C 0,1 C 83 % 89 % 1020,9 hPa 0,0 l/m 0,0 km/h (0 Bft) SO 135 0 min 3,4 C 6,2 C 0,0 km/h (0 Bft)
04.03.2021 07:40 6,1 C 6,6 C 5,1 C 6,4 C 6,4 C 0,3 C 83 % 89 % 1020,9 hPa 0,0 l/m 0,0 km/h (0 Bft) S 180 0 min 3,4 C 6,4 C 0,0 km/h (0 Bft)
04.03.2021 07:45 6,1 C 6,6 C 5,1 C 6,4 C 6,4 C 0,3 C 83 % 89 % 1020,9 hPa 0,0 l/m 0,0 km/h (0 Bft) S 180 0 min 3,4 C 6,4 C 0,0 km/h (0 Bft)
04.03.2021 07:50 6,2 C 6,6 C 5,2 C 6,6 C 6,6 C 0,4 C 83 % 89 % 1020,8 hPa 0,0 l/m 0,0 km/h (0 Bft) S 180 0 min 3,5 C 6,6 C 0,0 km/h (0 Bft)
04.03.2021 07:55 6,3 C 6,6 C 5,4 C 6,7 C 6,7 C 0,4 C 83 % 89 % 1020,8 hPa 0,0 l/m 0,0 km/h (0 Bft) SO 135 0 min 3,6 C 6,7 C 0,0 km/h (0 Bft)
04.03.2021 08:00 6,4 C 6,7 C 5,5 C 6,9 C 6,9 C 0,5 C 83 % 89 % 1020,8 hPa 0,0 l/m 0,0 km/h (0 Bft) SW 225 0 min 3,7 C 6,9 C 0,0 km/h (0 Bft)
04.03.2021 08:05 6,5 C 6,7 C 5,5 C 7,0 C 7,0 C 0,5 C 83 % 89 % 1020,8 hPa 0,0 l/m 0,0 km/h (0 Bft) SW 225 0 min 3,8 C 7,0 C 0,0 km/h (0 Bft)
04.03.2021 08:10 6,7 C 6,7 C 5,7 C 7,3 C 7,3 C 0,6 C 84 % 89 % 1020,5 hPa 0,0 l/m 0,0 km/h (0 Bft) SW 225 0 min 4,2 C 7,3 C 0,0 km/h (0 Bft)
04.03.2021 08:15 6,7 C 6,7 C 5,8 C 7,5 C 7,5 C 0,8 C 84 % 89 % 1020,5 hPa 0,0 l/m 0,0 km/h (0 Bft) SW 225 0 min 4,2 C 7,5 C 0,0 km/h (0 Bft)
04.03.2021 08:20 6,9 C 6,6 C 6,0 C 7,8 C 7,8 C 0,9 C 84 % 89 % 1020,5 hPa 0,0 l/m 0,0 km/h (0 Bft) SW 225 0 min 4,4 C 7,8 C 0,0 km/h (0 Bft)
04.03.2021 08:25 6,9 C 6,6 C 6,2 C 7,9 C 7,9 C 1,0 C 84 % 89 % 1020,5 hPa 0,0 l/m 0,0 km/h (0 Bft) SW 225 0 min 4,4 C 7,9 C 0,0 km/h (0 Bft)
04.03.2021 08:30 7,1 C 6,6 C 6,7 C 8,5 C 8,5 C 1,4 C 84 % 89 % 1020,6 hPa 0,0 l/m 0,0 km/h (0 Bft) SW 225 0 min 4,6 C 8,5 C 0,0 km/h (0 Bft)
04.03.2021 08:35 7,2 C 6,5 C 6,7 C 8,9 C 8,9 C 1,7 C 84 % 88 % 1020,6 hPa 0,0 l/m 0,0 km/h (0 Bft) O-SO 112 0 min 4,7 C 8,9 C 0,0 km/h (0 Bft)
04.03.2021 08:40 7,5 C 6,5 C 7,0 C 8,9 C 8,9 C 1,4 C 83 % 88 % 1020,6 hPa 0,0 l/m 0,0 km/h (0 Bft) O-SO 112 0 min 4,8 C 8,9 C 0,0 km/h (0 Bft)
04.03.2021 08:45 7,5 C 6,6 C 7,1 C 9,1 C 9,1 C 1,6 C 83 % 88 % 1020,6 hPa 0,0 l/m 0,0 km/h (0 Bft) O-SO 112 0 min 4,8 C 9,1 C 0,0 km/h (0 Bft)
04.03.2021 08:50 7,6 C 6,6 C 7,2 C 8,7 C 8,7 C 1,1 C 83 % 88 % 1020,9 hPa 0,0 l/m 0,0 km/h (0 Bft) O-SO 112 0 min 4,9 C 8,7 C 0,0 km/h (0 Bft)
04.03.2021 08:55 7,7 C 6,6 C 7,1 C 8,4 C 8,4 C 0,7 C 83 % 87 % 1020,9 hPa 0,0 l/m 0,0 km/h (0 Bft) O-SO 112 0 min 5,0 C 8,4 C 0,0 km/h (0 Bft)
04.03.2021 09:00 7,9 C 6,6 C 7,1 C 8,0 C 8,0 C 0,1 C 83 % 87 % 1020,9 hPa 0,0 l/m 0,0 km/h (0 Bft) SO 135 0 min 5,2 C 8,0 C 2,4 km/h (1 Bft)
04.03.2021 09:05 7,9 C 6,6 C 7,3 C 8,1 C 8,1 C 0,2 C 82 % 87 % 1020,9 hPa 0,0 l/m 0,0 km/h (0 Bft) S 180 0 min 5,0 C 8,1 C 0,0 km/h (0 Bft)
04.03.2021 09:10 7,9 C 6,6 C 7,7 C 8,8 C 8,8 C 0,9 C 82 % 86 % 1020,5 hPa 0,0 l/m 0,2 km/h (0 Bft) SO 135 0 min 5,0 C 8,8 C 4,2 km/h (1 Bft)
04.03.2021 09:15 8,0 C 6,6 C 7,8 C 9,2 C 9,2 C 1,2 C 82 % 86 % 1020,5 hPa 0,0 l/m 0,0 km/h (0 Bft) SW 225 0 min 5,1 C 9,2 C 0,0 km/h (0 Bft)
04.03.2021 09:20 8,1 C 6,6 C 7,8 C 9,2 C 9,2 C 1,1 C 82 % 86 % 1020,5 hPa 0,0 l/m 0,0 km/h (0 Bft) S 180 0 min 5,2 C 9,2 C 0,0 km/h (0 Bft)
04.03.2021 09:25 8,2 C 6,6 C 7,9 C 9,3 C 9,3 C 1,1 C 81 % 86 % 1020,5 hPa 0,0 l/m 0,0 km/h (0 Bft) W-SW 247 0 min 5,1 C 9,3 C 0,0 km/h (0 Bft)
04.03.2021 09:30 8,3 C 6,6 C 8,1 C 9,6 C 9,6 C 1,3 C 81 % 85 % 1020,2 hPa 0,0 l/m 0,0 km/h (0 Bft) W-SW 247 0 min 5,2 C 9,6 C 0,0 km/h (0 Bft)
04.03.2021 09:35 8,4 C 6,6 C 8,1 C 9,8 C 9,8 C 1,4 C 81 % 85 % 1020,2 hPa 0,0 l/m 0,0 km/h (0 Bft) SW 225 0 min 5,3 C 9,8 C 0,0 km/h (0 Bft)
04.03.2021 09:40 8,4 C 6,6 C 8,0 C 9,4 C 9,4 C 1,0 C 81 % 85 % 1020,2 hPa 0,0 l/m 0,0 km/h (0 Bft) SW 225 0 min 5,3 C 9,4 C 0,0 km/h (0 Bft)
04.03.2021 09:45 8,4 C 6,6 C 8,0 C 9,3 C 9,3 C 0,9 C 81 % 85 % 1020,2 hPa 0,0 l/m 0,0 km/h (0 Bft) W-SW 247 0 min 5,3 C 9,3 C 0,0 km/h (0 Bft)
04.03.2021 09:50 8,5 C 6,6 C 8,1 C 9,3 C 9,3 C 0,8 C 81 % 84 % 1020,3 hPa 0,0 l/m 0,8 km/h (0 Bft) S-SW 202 0 min 5,4 C 9,3 C 5,5 km/h (1 Bft)
04.03.2021 09:55 8,5 C 6,6 C 8,2 C 9,4 C 9,4 C 0,9 C 80 % 84 % 1020,3 hPa 0,0 l/m 1,9 km/h (1 Bft) S 180 0 min 5,3 C 9,4 C 5,1 km/h (1 Bft)
04.03.2021 10:00 8,6 C 6,6 C 8,3 C 9,6 C 9,6 C 1,0 C 80 % 84 % 1020,3 hPa 0,0 l/m 2,3 km/h (1 Bft) SW 225 0 min 5,3 C 9,6 C 6,9 km/h (2 Bft)
04.03.2021 10:05 8,7 C 6,6 C 8,4 C 9,7 C 9,7 C 1,0 C 79 % 83 % 1020,3 hPa 0,0 l/m 2,1 km/h (1 Bft) S-SW 202 0 min 5,3 C 9,7 C 3,1 km/h (1 Bft)
04.03.2021 10:10 8,8 C 6,6 C 8,4 C 9,8 C 9,8 C 1,0 C 79 % 82 % 1019,9 hPa 0,0 l/m 2,7 km/h (1 Bft) S 180 0 min 5,4 C 9,8 C 7,9 km/h (2 Bft)
04.03.2021 10:15 8,8 C 6,6 C 8,5 C 9,7 C 9,7 C 0,9 C 79 % 82 % 1019,9 hPa 0,0 l/m 2,1 km/h (1 Bft) S 180 0 min 5,4 C 9,7 C 0,0 km/h (0 Bft)
04.03.2021 10:20 8,8 C 6,6 C 8,6 C 9,9 C 9,9 C 1,1 C 78 % 82 % 1019,9 hPa 0,0 l/m 2,7 km/h (1 Bft) W-SW 247 0 min 5,2 C 9,9 C 12,4 km/h (3 Bft)
04.03.2021 10:25 8,9 C 6,6 C 8,7 C 10,0 C 10,0 C 1,1 C 78 % 82 % 1019,9 hPa 0,0 l/m 3,2 km/h (1 Bft) W 270 0 min 5,3 C 10,0 C 2,7 km/h (1 Bft)
04.03.2021 10:30 8,9 C 6,6 C 8,7 C 9,8 C 9,8 C 0,9 C 78 % 82 % 1019,6 hPa 0,0 l/m 2,7 km/h (1 Bft) S 180 0 min 5,3 C 9,8 C 3,2 km/h (1 Bft)
04.03.2021 10:35 9,0 C 6,6 C 8,8 C 10,0 C 10,0 C 1,0 C 78 % 82 % 1019,6 hPa 0,0 l/m 1,9 km/h (1 Bft) S 180 0 min 5,4 C 10,0 C 3,5 km/h (1 Bft)
04.03.2021 10:40 9,1 C 6,6 C 9,1 C 10,5 C 10,5 C 1,4 C 79 % 82 % 1019,6 hPa 0,0 l/m 0,8 km/h (0 Bft) S 180 0 min 5,7 C 10,5 C 0,0 km/h (0 Bft)
04.03.2021 10:45 9,3 C 6,6 C 9,3 C 10,9 C 10,9 C 1,6 C 79 % 81 % 1019,6 hPa 0,0 l/m 1,4 km/h (1 Bft) S-SW 202 0 min 5,8 C 10,9 C 0,0 km/h (0 Bft)
04.03.2021 10:50 9,5 C 6,6 C 9,6 C 11,4 C 11,4 C 1,9 C 78 % 81 % 1019,7 hPa 0,0 l/m 2,1 km/h (1 Bft) SW 225 0 min 5,9 C 11,4 C 7,1 km/h (2 Bft)
04.03.2021 10:55 9,5 C 6,6 C 9,7 C 11,4 C 11,4 C 1,9 C 78 % 81 % 1019,7 hPa 0,0 l/m 2,4 km/h (1 Bft) W-SW 247 0 min 5,9 C 11,4 C 4,3 km/h (1 Bft)
04.03.2021 11:00 9,7 C 6,6 C 9,9 C 11,6 C 11,6 C 1,9 C 78 % 80 % 1019,7 hPa 0,0 l/m 2,9 km/h (1 Bft) W 270 0 min 6,1 C 11,6 C 4,3 km/h (1 Bft)
04.03.2021 11:05 9,7 C 6,6 C 10,0 C 11,7 C 11,7 C 2,0 C 77 % 80 % 1019,7 hPa 0,0 l/m 2,9 km/h (1 Bft) S-SW 202 0 min 5,9 C 11,7 C 1,8 km/h (1 Bft)
04.03.2021 11:10 9,9 C 6,6 C 10,4 C 12,0 C 12,0 C 2,1 C 77 % 79 % 1019,6 hPa 0,0 l/m 2,9 km/h (1 Bft) W-SW 247 0 min 6,1 C 12,0 C 0,0 km/h (0 Bft)
04.03.2021 11:15 10,1 C 6,7 C 10,8 C 12,8 C 12,8 C 2,7 C 77 % 78 % 1019,6 hPa 0,0 l/m 3,1 km/h (1 Bft) SW 225 0 min 6,3 C 12,8 C 4,5 km/h (1 Bft)
04.03.2021 11:20 10,4 C 6,7 C 11,2 C 14,2 C 14,2 C 3,8 C 77 % 77 % 1019,6 hPa 0,0 l/m 4,3 km/h (1 Bft) S-SW 202 5 min 6,5 C 14,2 C 7,1 km/h (2 Bft)
04.03.2021 11:25 10,7 C 6,7 C 11,4 C 14,3 C 14,3 C 3,6 C 77 % 77 % 1019,6 hPa 0,0 l/m 3,7 km/h (1 Bft) SW 225 5 min 6,8 C 14,3 C 5,3 km/h (1 Bft)
04.03.2021 11:30 10,7 C 6,7 C 11,2 C 13,8 C 13,8 C 3,1 C 75 % 75 % 1019,4 hPa 0,0 l/m 2,9 km/h (1 Bft) S-SW 202 0 min 6,5 C 13,8 C 9,7 km/h (2 Bft)
04.03.2021 11:35 10,7 C 6,7 C 11,0 C 13,1 C 13,1 C 2,4 C 74 % 75 % 1019,4 hPa 0,0 l/m 3,5 km/h (1 Bft) SW 225 0 min 6,3 C 13,1 C 7,1 km/h (2 Bft)
04.03.2021 11:40 10,6 C 6,7 C 10,8 C 12,5 C 12,5 C 1,9 C 74 % 75 % 1019,4 hPa 0,0 l/m 4,3 km/h (1 Bft) O-SO 112 0 min 6,2 C 12,5 C 8,7 km/h (2 Bft)
04.03.2021 11:45 10,5 C 6,7 C 10,5 C 11,8 C 11,8 C 1,3 C 74 % 75 % 1019,4 hPa 0,0 l/m 5,1 km/h (1 Bft) S-SW 202 0 min 6,1 C 11,8 C 5,3 km/h (1 Bft)
04.03.2021 11:50 10,3 C 6,7 C 10,3 C 11,1 C 11,1 C 0,8 C 74 % 76 % 1019,6 hPa 0,0 l/m 5,0 km/h (1 Bft) SW 225 0 min 5,9 C 11,1 C 12,7 km/h (3 Bft)
04.03.2021 11:55 10,1 C 6,7 C 10,2 C 11,1 C 11,1 C 1,0 C 74 % 77 % 1019,6 hPa 0,0 l/m 3,5 km/h (1 Bft) SW 225 0 min 5,7 C 11,1 C 3,5 km/h (1 Bft)
04.03.2021 12:00 10,1 C 6,7 C 10,2 C 11,2 C 11,2 C 1,1 C 75 % 77 % 1019,6 hPa 0,0 l/m 2,1 km/h (1 Bft) S 180 0 min 5,9 C 11,2 C 2,1 km/h (1 Bft)
04.03.2021 12:05 10,2 C 6,7 C 10,2 C 11,2 C 11,2 C 1,0 C 75 % 77 % 1019,6 hPa 0,0 l/m 1,3 km/h (1 Bft) W-SW 247 0 min 6,0 C 11,2 C 2,9 km/h (1 Bft)
04.03.2021 12:10 10,2 C 6,7 C 10,1 C 11,2 C 11,2 C 1,0 C 75 % 77 % 1019,3 hPa 0,0 l/m 1,1 km/h (1 Bft) SW 225 0 min 6,0 C 11,2 C 2,3 km/h (1 Bft)
04.03.2021 12:15 10,2 C 6,7 C 10,1 C 11,2 C 11,2 C 1,0 C 75 % 77 % 1019,3 hPa 0,0 l/m 1,1 km/h (1 Bft) SW 225 0 min 6,0 C 11,2 C 2,3 km/h (1 Bft)
04.03.2021 12:20 10,1 C 6,8 C 9,9 C 11,0 C 11,0 C 0,9 C 76 % 78 % 1019,3 hPa 0,0 l/m 1,0 km/h (0 Bft) SW 225 0 min 6,1 C 11,0 C 2,4 km/h (1 Bft)
04.03.2021 12:25 10,0 C 6,8 C 9,9 C 11,0 C 11,0 C 1,0 C 75 % 78 % 1019,3 hPa 0,0 l/m 1,0 km/h (0 Bft) SW 225 0 min 5,8 C 11,0 C 8,4 km/h (2 Bft)
04.03.2021 12:30 10,0 C 6,8 C 9,7 C 10,8 C 10,8 C 0,8 C 75 % 78 % 1019,6 hPa 0,0 l/m 2,6 km/h (1 Bft) SW 225 0 min 5,8 C 10,8 C 9,7 km/h (2 Bft)
04.03.2021 12:35 9,9 C 6,8 C 9,7 C 10,7 C 10,7 C 0,8 C 75 % 78 % 1019,6 hPa 0,0 l/m 3,2 km/h (1 Bft) SW 225 0 min 5,7 C 10,7 C 1,6 km/h (1 Bft)
04.03.2021 12:40 9,9 C 6,8 C 9,7 C 10,6 C 10,6 C 0,7 C 75 % 78 % 1019,6 hPa 0,0 l/m 4,0 km/h (1 Bft) SW 225 0 min 5,7 C 10,6 C 3,5 km/h (1 Bft)
04.03.2021 12:45 9,8 C 6,8 C 9,6 C 10,6 C 10,6 C 0,8 C 76 % 78 % 1019,6 hPa 0,0 l/m 2,6 km/h (1 Bft) W-SW 247 0 min 5,8 C 10,6 C 3,4 km/h (1 Bft)
04.03.2021 12:50 9,8 C 6,8 C 9,6 C 10,6 C 10,6 C 0,8 C 76 % 79 % 1019,1 hPa 0,0 l/m 1,1 km/h (1 Bft) S 180 0 min 5,8 C 10,6 C 4,0 km/h (1 Bft)
04.03.2021 12:55 9,9 C 6,8 C 9,5 C 10,6 C 10,6 C 0,7 C 76 % 79 % 1019,1 hPa 0,0 l/m 1,1 km/h (1 Bft) SW 225 0 min 5,9 C 10,6 C 3,2 km/h (1 Bft)
04.03.2021 13:00 9,7 C 6,8 C 9,4 C 10,3 C 10,3 C 0,6 C 76 % 79 % 1019,1 hPa 0,0 l/m 1,3 km/h (1 Bft) S-SW 202 0 min 5,7 C 10,3 C 0,0 km/h (0 Bft)
04.03.2021 13:05 9,6 C 6,8 C 9,3 C 10,1 C 10,1 C 0,5 C 77 % 80 % 1019,1 hPa 0,0 l/m 1,0 km/h (0 Bft) SW 225 0 min 5,8 C 10,1 C 0,0 km/h (0 Bft)
04.03.2021 13:10 9,4 C 6,9 C 9,1 C 9,8 C 9,8 C 0,4 C 77 % 81 % 1018,8 hPa 0,0 l/m 0,6 km/h (0 Bft) SW 225 0 min 5,6 C 9,8 C 1,9 km/h (1 Bft)
04.03.2021 13:15 9,3 C 6,9 C 8,9 C 9,4 C 9,4 C 0,1 C 78 % 81 % 1018,8 hPa 0,0 l/m 0,6 km/h (0 Bft) S-SW 202 0 min 5,7 C 9,4 C 0,0 km/h (0 Bft)
04.03.2021 13:20 9,1 C 6,9 C 8,7 C 9,0 C 8,9 C 0,0 C 79 % 82 % 1018,8 hPa 0,0 l/m 0,0 km/h (0 Bft) NW 315 0 min 5,7 C 8,9 C 0,0 km/h (0 Bft)
04.03.2021 13:25 9,0 C 6,9 C 8,6 C 8,9 C 8,7 C 0,0 C 79 % 83 % 1018,8 hPa 0,0 l/m 0,0 km/h (0 Bft) SW 225 0 min 5,6 C 8,7 C 0,0 km/h (0 Bft)
04.03.2021 13:30 9,1 C 6,9 C 8,7 C 9,0 C 8,7 C 0,0 C 80 % 84 % 1018,5 hPa 0,0 l/m 0,0 km/h (0 Bft) SW 225 0 min 5,8 C 8,7 C 0,0 km/h (0 Bft)
04.03.2021 13:35 9,0 C 6,9 C 8,7 C 8,9 C 8,7 C 0,0 C 80 % 84 % 1018,5 hPa 0,0 l/m 0,0 km/h (0 Bft) W 270 0 min 5,7 C 8,7 C 0,0 km/h (0 Bft)
04.03.2021 13:40 8,9 C 7,1 C 8,6 C 8,8 C 8,6 C 0,0 C 81 % 84 % 1018,5 hPa 0,0 l/m 0,0 km/h (0 Bft) S-SW 202 0 min 5,8 C 8,6 C 0,0 km/h (0 Bft)
04.03.2021 13:45 8,9 C 7,1 C 8,6 C 8,8 C 8,6 C 0,0 C 81 % 84 % 1018,5 hPa 0,0 l/m 0,0 km/h (0 Bft) N-NO 22 0 min 5,8 C 8,6 C 0,0 km/h (0 Bft)
04.03.2021 13:50 8,8 C 7,1 C 8,5 C 8,7 C 8,6 C 0,0 C 82 % 85 % 1018,2 hPa 0,0 l/m 0,0 km/h (0 Bft) S 180 0 min 5,9 C 8,6 C 0,0 km/h (0 Bft)
04.03.2021 13:55 8,8 C 7,1 C 8,3 C 8,6 C 8,3 C 0,0 C 82 % 85 % 1018,2 hPa 0,0 l/m 0,3 km/h (0 Bft) S-SW 202 0 min 5,9 C 8,3 C 0,0 km/h (0 Bft)
04.03.2021 14:00 8,7 C 7,2 C 8,1 C 8,5 C 8,2 C 0,0 C 82 % 86 % 1018,2 hPa 0,0 l/m 0,3 km/h (0 Bft) NW 315 0 min 5,8 C 8,2 C 0,0 km/h (0 Bft)
04.03.2021 14:05 8,5 C 7,3 C 7,9 C 8,3 C 8,0 C 0,0 C 83 % 87 % 1018,2 hPa 0,0 l/m 0,0 km/h (0 Bft) SW 225 0 min 5,8 C 8,0 C 0,0 km/h (0 Bft)
04.03.2021 14:10 8,4 C 7,4 C 7,8 C 8,2 C 7,9 C 0,0 C 83 % 89 % 1018,6 hPa 0,7 l/m 0,0 km/h (0 Bft) SW 225 0 min 5,7 C 7,9 C 0,0 km/h (0 Bft)
04.03.2021 14:15 8,4 C 7,4 C 7,7 C 8,2 C 7,9 C 0,0 C 84 % 89 % 1018,6 hPa 0,0 l/m 0,0 km/h (0 Bft) SW 225 0 min 5,9 C 7,9 C 0,0 km/h (0 Bft)
04.03.2021 14:20 8,3 C 7,4 C 7,6 C 8,2 C 7,9 C 0,0 C 84 % 90 % 1018,6 hPa 0,0 l/m 0,0 km/h (0 Bft) S-SO 157 0 min 5,8 C 7,9 C 0,0 km/h (0 Bft)
04.03.2021 14:25 8,3 C 7,4 C 7,6 C 8,2 C 7,9 C 0,0 C 84 % 90 % 1018,6 hPa 0,0 l/m 0,0 km/h (0 Bft) S-SO 157 0 min 5,8 C 7,9 C 0,0 km/h (0 Bft)
04.03.2021 14:30 8,2 C 7,4 C 7,6 C 8,1 C 7,9 C 0,0 C 84 % 91 % 1018,2 hPa 0,0 l/m 0,0 km/h (0 Bft) W 270 0 min 5,7 C 7,9 C 0,0 km/h (0 Bft)
04.03.2021 14:35 8,2 C 7,4 C 7,7 C 8,2 C 8,1 C 0,0 C 85 % 91 % 1018,2 hPa 0,0 l/m 0,0 km/h (0 Bft) W-SW 247 0 min 5,8 C 8,1 C 0,0 km/h (0 Bft)
04.03.2021 14:40 8,2 C 7,4 C 8,0 C 8,6 C 8,6 C 0,4 C 85 % 91 % 1018,2 hPa 0,0 l/m 0,0 km/h (0 Bft) W 270 0 min 5,8 C 8,6 C 0,0 km/h (0 Bft)
04.03.2021 14:45 8,3 C 7,5 C 8,1 C 8,8 C 8,8 C 0,5 C 86 % 91 % 1018,2 hPa 0,0 l/m 0,0 km/h (0 Bft) NW 315 0 min 6,1 C 8,8 C 0,0 km/h (0 Bft)
04.03.2021 14:50 8,2 C 7,5 C 8,1 C 8,9 C 8,9 C 0,7 C 86 % 91 % 1018,7 hPa 0,0 l/m 0,0 km/h (0 Bft) SW 225 0 min 6,0 C 8,9 C 0,0 km/h (0 Bft)
04.03.2021 14:55 8,2 C 7,5 C 7,9 C 8,7 C 8,7 C 0,5 C 86 % 91 % 1018,7 hPa 0,0 l/m 0,0 km/h (0 Bft) NW 315 0 min 6,0 C 8,7 C 0,0 km/h (0 Bft)
04.03.2021 15:00 8,0 C 7,5 C 7,7 C 8,3 C 8,3 C 0,3 C 86 % 91 % 1018,7 hPa 0,0 l/m 0,0 km/h (0 Bft) N-NO 22 0 min 5,8 C 8,3 C 0,0 km/h (0 Bft)
04.03.2021 15:05 7,8 C 7,5 C 7,4 C 7,9 C 7,9 C 0,1 C 86 % 91 % 1018,7 hPa 0,0 l/m 0,0 km/h (0 Bft) NW 315 0 min 5,6 C 7,9 C 0,0 km/h (0 Bft)
04.03.2021 15:10 7,3 C 7,5 C 6,9 C 7,3 C 7,3 C 0,0 C 85 % 91 % 1018,7 hPa 0,0 l/m 0,0 km/h (0 Bft) SW 225 0 min 4,9 C 7,3 C 0,0 km/h (0 Bft)
04.03.2021 15:15 7,1 C 7,5 C 6,7 C 7,0 C 6,9 C 0,0 C 85 % 91 % 1018,7 hPa 0,0 l/m 0,2 km/h (0 Bft) NW 315 0 min 4,8 C 6,9 C 0,0 km/h (0 Bft)
04.03.2021 15:20 6,7 C 7,6 C 6,4 C 6,6 C 6,5 C 0,0 C 85 % 91 % 1018,7 hPa 0,0 l/m 0,2 km/h (0 Bft) O-SO 112 0 min 4,4 C 6,5 C 0,0 km/h (0 Bft)
04.03.2021 15:25 6,5 C 7,4 C 6,3 C 6,5 C 6,4 C 0,0 C 86 % 91 % 1018,7 hPa 0,0 l/m 0,2 km/h (0 Bft) NW 315 0 min 4,3 C 6,4 C 0,0 km/h (0 Bft)
04.03.2021 15:30 6,4 C 7,4 C 6,1 C 6,3 C 6,1 C 0,0 C 86 % 92 % 1018,6 hPa 0,0 l/m 0,0 km/h (0 Bft) NW 315 0 min 4,2 C 6,1 C 0,0 km/h (0 Bft)
04.03.2021 15:35 6,3 C 7,4 C 6,0 C 6,2 C 6,1 C 0,0 C 86 % 92 % 1018,6 hPa 0,0 l/m 0,0 km/h (0 Bft) N-NO 22 0 min 4,1 C 6,1 C 0,0 km/h (0 Bft)
04.03.2021 15:40 6,0 C 7,4 C 5,7 C 5,9 C 5,8 C 0,0 C 86 % 91 % 1018,6 hPa 0,0 l/m 0,0 km/h (0 Bft) NO 45 0 min 3,8 C 5,8 C 0,0 km/h (0 Bft)
04.03.2021 15:45 5,8 C 7,4 C 5,6 C 5,7 C 5,6 C 0,0 C 86 % 91 % 1018,6 hPa 0,0 l/m 0,2 km/h (0 Bft) O 90 0 min 3,6 C 5,6 C 0,0 km/h (0 Bft)
04.03.2021 15:50 5,6 C 7,4 C 5,5 C 5,6 C 5,5 C 0,0 C 86 % 92 % 1018,2 hPa 0,0 l/m 0,2 km/h (0 Bft) NO 45 0 min 3,4 C 5,5 C 1,9 km/h (1 Bft)
04.03.2021 15:55 5,4 C 7,4 C 5,4 C 5,4 C 5,4 C 0,0 C 87 % 92 % 1018,2 hPa 0,0 l/m 0,2 km/h (0 Bft) NW 315 0 min 3,4 C 5,4 C 0,0 km/h (0 Bft)
04.03.2021 16:00 5,2 C 7,5 C 5,1 C 5,3 C 5,3 C 0,1 C 86 % 92 % 1018,2 hPa 0,0 l/m 0,0 km/h (0 Bft) NO 45 0 min 3,1 C 5,3 C 0,0 km/h (0 Bft)
04.03.2021 16:05 5,2 C 7,5 C 5,1 C 5,2 C 5,2 C 0,0 C 86 % 92 % 1018,2 hPa 0,0 l/m 0,0 km/h (0 Bft) W-NW 292 0 min 3,1 C 5,2 C 1,6 km/h (1 Bft)
04.03.2021 16:10 5,1 C 7,5 C 5,0 C 5,1 C 5,1 C 0,0 C 87 % 92 % 1018,5 hPa 0,0 l/m 0,3 km/h (0 Bft) NW 315 0 min 3,1 C 5,1 C 1,9 km/h (1 Bft)
04.03.2021 16:15 4,9 C 7,5 C 4,9 C 5,0 C 5,0 C 0,1 C 87 % 92 % 1018,5 hPa 0,0 l/m 0,6 km/h (0 Bft) NW 315 0 min 2,9 C 5,0 C 1,6 km/h (1 Bft)
04.03.2021 16:20 4,7 C 7,5 C 4,7 C 4,8 C 4,8 C 0,1 C 87 % 92 % 1018,5 hPa 0,0 l/m 1,1 km/h (1 Bft) N-NW 337 0 min 2,7 C 4,8 C 0,0 km/h (0 Bft)
04.03.2021 16:25 4,7 C 7,5 C 4,7 C 4,7 C 4,7 C 0,0 C 87 % 92 % 1018,5 hPa 0,0 l/m 0,6 km/h (0 Bft) O-NO 67 0 min 2,7 C 4,7 C 0,0 km/h (0 Bft)
04.03.2021 16:30 4,5 C 7,5 C 4,7 C 4,6 C 4,6 C 0,1 C 87 % 93 % 1017,9 hPa 0,0 l/m 0,5 km/h (0 Bft) N-NO 22 0 min 2,5 C 4,6 C 2,7 km/h (1 Bft)
04.03.2021 16:35 4,5 C 7,5 C 4,5 C 4,6 C 4,6 C 0,1 C 87 % 92 % 1017,9 hPa 0,0 l/m 0,8 km/h (0 Bft) W 270 0 min 2,5 C 4,6 C 2,1 km/h (1 Bft)
04.03.2021 16:40 4,3 C 7,5 C 4,5 C 4,5 C 4,5 C 0,2 C 87 % 92 % 1017,9 hPa 0,0 l/m 1,0 km/h (0 Bft) W-NW 292 0 min 2,3 C 4,5 C 0,0 km/h (0 Bft)
04.03.2021 16:45 4,3 C 7,5 C 4,5 C 4,4 C 4,4 C 0,1 C 87 % 92 % 1017,9 hPa 0,0 l/m 0,5 km/h (0 Bft) W-NW 292 0 min 2,3 C 4,4 C 0,0 km/h (0 Bft)
04.03.2021 16:50 4,3 C 7,6 C 4,5 C 4,5 C 4,5 C 0,2 C 87 % 92 % 1018,2 hPa 0,0 l/m 0,3 km/h (0 Bft) W-NW 292 0 min 2,3 C 4,5 C 0,0 km/h (0 Bft)
04.03.2021 16:55 4,2 C 7,5 C 4,5 C 4,5 C 4,5 C 0,3 C 88 % 92 % 1018,2 hPa 0,0 l/m 0,2 km/h (0 Bft) W-NW 292 0 min 2,4 C 4,5 C 4,7 km/h (1 Bft)
04.03.2021 17:00 4,1 C 7,5 C 4,4 C 4,4 C 4,4 C 0,3 C 88 % 92 % 1018,2 hPa 0,7 l/m 0,3 km/h (0 Bft) W-NW 292 0 min 2,3 C 4,4 C 0,0 km/h (0 Bft)
04.03.2021 17:05 4,0 C 7,5 C 4,3 C 4,4 C 4,4 C 0,4 C 88 % 92 % 1018,2 hPa 0,0 l/m 0,3 km/h (0 Bft) W-NW 292 0 min 2,2 C 4,4 C 0,0 km/h (0 Bft)
04.03.2021 17:10 4,0 C 7,5 C 4,3 C 4,3 C 4,3 C 0,3 C 88 % 92 % 1018,1 hPa 0,0 l/m 0,0 km/h (0 Bft) W-NW 292 0 min 2,2 C 4,3 C 0,0 km/h (0 Bft)
04.03.2021 17:15 3,9 C 7,5 C 4,2 C 4,2 C 4,2 C 0,3 C 88 % 92 % 1018,1 hPa 0,0 l/m 0,2 km/h (0 Bft) W 270 0 min 2,1 C 4,2 C 0,0 km/h (0 Bft)
04.03.2021 17:20 3,9 C 7,5 C 4,1 C 4,1 C 4,1 C 0,2 C 88 % 92 % 1018,1 hPa 0,7 l/m 0,5 km/h (0 Bft) NO 45 0 min 2,1 C 4,1 C 0,0 km/h (0 Bft)
04.03.2021 17:25 3,9 C 7,5 C 4,0 C 4,1 C 4,1 C 0,2 C 88 % 92 % 1018,1 hPa 0,0 l/m 0,6 km/h (0 Bft) NW 315 0 min 2,1 C 4,1 C 7,1 km/h (2 Bft)
04.03.2021 17:30 3,7 C 7,4 C 3,9 C 4,0 C 4,0 C 0,3 C 88 % 93 % 1018,2 hPa 0,0 l/m 0,6 km/h (0 Bft) NW 315 0 min 1,9 C 4,0 C 1,8 km/h (1 Bft)
04.03.2021 17:35 3,6 C 7,4 C 3,9 C 3,9 C 3,9 C 0,3 C 87 % 92 % 1018,2 hPa 0,7 l/m 0,6 km/h (0 Bft) W 270 0 min 1,6 C 3,9 C 0,0 km/h (0 Bft)
04.03.2021 17:40 3,5 C 7,4 C 3,8 C 3,8 C 3,8 C 0,3 C 87 % 93 % 1018,2 hPa 0,0 l/m 1,1 km/h (1 Bft) W-NW 292 5 min 1,5 C 3,8 C 0,0 km/h (0 Bft)
04.03.2021 17:45 3,5 C 7,4 C 3,7 C 3,7 C 3,7 C 0,2 C 87 % 93 % 1018,2 hPa 0,0 l/m 1,3 km/h (1 Bft) W 270 0 min 1,5 C 3,7 C 4,5 km/h (1 Bft)
04.03.2021 17:50 3,3 C 7,4 C 3,6 C 3,5 C 3,5 C 0,2 C 87 % 93 % 1018,4 hPa 0,0 l/m 0,6 km/h (0 Bft) N 360 0 min 1,3 C 3,5 C 0,0 km/h (0 Bft)
04.03.2021 17:55 3,3 C 7,4 C 3,5 C 3,5 C 3,5 C 0,2 C 87 % 93 % 1018,4 hPa 0,0 l/m 0,6 km/h (0 Bft) NW 315 0 min 1,3 C 3,5 C 0,0 km/h (0 Bft)
04.03.2021 18:00 3,3 C 7,4 C 3,5 C 3,4 C 3,4 C 0,1 C 87 % 93 % 1018,4 hPa 0,7 l/m 0,6 km/h (0 Bft) NW 315 0 min 1,3 C 3,4 C 0,0 km/h (0 Bft)
04.03.2021 18:05 3,2 C 7,4 C 3,4 C 3,4 C 3,4 C 0,2 C 87 % 93 % 1018,4 hPa 0,0 l/m 0,5 km/h (0 Bft) NW 315 0 min 1,2 C 3,4 C 2,4 km/h (1 Bft)
04.03.2021 18:10 3,1 C 7,4 C 3,3 C 3,3 C 3,3 C 0,2 C 87 % 93 % 1018,4 hPa 0,0 l/m 1,0 km/h (0 Bft) N-NW 337 0 min 1,2 C 3,3 C 0,0 km/h (0 Bft)
04.03.2021 18:15 3,0 C 7,4 C 3,2 C 3,2 C 3,2 C 0,2 C 88 % 93 % 1018,4 hPa 0,0 l/m 1,4 km/h (1 Bft) N-NO 22 0 min 1,2 C 3,2 C 4,3 km/h (1 Bft)
04.03.2021 18:20 2,9 C 7,4 C 3,1 C 3,1 C 3,1 C 0,2 C 88 % 93 % 1018,4 hPa 0,0 l/m 1,1 km/h (1 Bft) W 270 0 min 1,1 C 3,1 C 0,0 km/h (0 Bft)
04.03.2021 18:25 2,8 C 7,4 C 3,1 C 3,1 C 3,1 C 0,3 C 88 % 93 % 1018,4 hPa 0,0 l/m 1,0 km/h (0 Bft) N-NO 22 0 min 1,0 C 3,1 C 0,0 km/h (0 Bft)
04.03.2021 18:30 2,8 C 7,4 C 3,1 C 3,1 C 3,1 C 0,3 C 88 % 93 % 1018,7 hPa 0,0 l/m 0,5 km/h (0 Bft) W-NW 292 0 min 1,0 C 3,1 C 0,0 km/h (0 Bft)
04.03.2021 18:35 2,7 C 7,4 C 3,1 C 3,0 C 3,0 C 0,3 C 88 % 93 % 1018,7 hPa 0,0 l/m 0,3 km/h (0 Bft) NO 45 0 min 0,9 C 3,0 C 2,9 km/h (1 Bft)
04.03.2021 18:40 2,7 C 7,4 C 3,0 C 3,0 C 3,0 C 0,3 C 88 % 93 % 1018,7 hPa 0,7 l/m 0,3 km/h (0 Bft) W 270 0 min 0,9 C 3,0 C 0,0 km/h (0 Bft)
04.03.2021 18:45 2,7 C 7,4 C 3,0 C 2,9 C 2,9 C 0,2 C 88 % 93 % 1018,7 hPa 0,0 l/m 0,3 km/h (0 Bft) W 270 0 min 0,9 C 2,9 C 0,0 km/h (0 Bft)
04.03.2021 18:50 2,6 C 7,4 C 3,0 C 2,9 C 2,9 C 0,3 C 88 % 93 % 1018,9 hPa 0,0 l/m 0,0 km/h (0 Bft) N-NW 337 0 min 0,8 C 2,9 C 0,0 km/h (0 Bft)
04.03.2021 18:55 2,5 C 7,3 C 2,9 C 2,8 C 2,8 C 0,3 C 88 % 93 % 1018,9 hPa 0,0 l/m 0,3 km/h (0 Bft) N-NO 22 0 min 0,7 C 2,8 C 0,0 km/h (0 Bft)
04.03.2021 19:00 2,5 C 7,3 C 2,8 C 2,8 C 2,8 C 0,3 C 88 % 93 % 1018,9 hPa 0,0 l/m 0,5 km/h (0 Bft) W-NW 292 0 min 0,7 C 2,8 C 0,0 km/h (0 Bft)
04.03.2021 19:05 2,4 C 7,3 C 2,7 C 2,7 C 2,7 C 0,3 C 88 % 93 % 1018,9 hPa 0,0 l/m 0,2 km/h (0 Bft) W-NW 292 0 min 0,6 C 2,7 C 0,0 km/h (0 Bft)
04.03.2021 19:10 2,3 C 7,3 C 2,7 C 2,6 C 2,6 C 0,3 C 88 % 93 % 1018,9 hPa 0,0 l/m 0,5 km/h (0 Bft) W-NW 292 0 min 0,5 C 2,6 C 0,0 km/h (0 Bft)
04.03.2021 19:15 2,3 C 7,3 C 2,7 C 2,6 C 2,6 C 0,3 C 88 % 93 % 1018,9 hPa 0,0 l/m 0,6 km/h (0 Bft) N 360 0 min 0,5 C 2,6 C 2,9 km/h (1 Bft)
04.03.2021 19:20 2,2 C 7,3 C 2,6 C 2,5 C 2,5 C 0,3 C 88 % 93 % 1018,9 hPa 0,0 l/m 0,6 km/h (0 Bft) W 270 0 min 0,4 C 2,5 C 0,0 km/h (0 Bft)
04.03.2021 19:25 2,1 C 7,3 C 2,6 C 2,4 C 2,4 C 0,3 C 88 % 93 % 1018,9 hPa 0,0 l/m 0,6 km/h (0 Bft) NW 315 0 min 0,3 C 2,4 C 0,0 km/h (0 Bft)
04.03.2021 19:30 2,0 C 7,3 C 2,5 C 2,3 C 2,3 C 0,3 C 88 % 93 % 1018,8 hPa 0,7 l/m 0,6 km/h (0 Bft) W 270 0 min 0,2 C 2,3 C 0,0 km/h (0 Bft)
04.03.2021 19:35 2,0 C 7,3 C 2,5 C 2,3 C 2,3 C 0,3 C 88 % 93 % 1018,8 hPa 0,0 l/m 0,5 km/h (0 Bft) W 270 0 min 0,2 C 2,3 C 0,0 km/h (0 Bft)
04.03.2021 19:40 2,0 C 7,3 C 2,4 C 2,3 C 2,3 C 0,3 C 88 % 93 % 1018,8 hPa 0,0 l/m 0,2 km/h (0 Bft) NW 315 0 min 0,2 C 2,3 C 0,0 km/h (0 Bft)
04.03.2021 19:45 1,9 C 7,3 C 2,4 C 2,3 C 2,3 C 0,4 C 88 % 93 % 1018,8 hPa 0,0 l/m 0,2 km/h (0 Bft) NW 315 0 min 0,1 C 2,3 C 0,0 km/h (0 Bft)
04.03.2021 19:50 1,8 C 7,3 C 2,4 C 2,2 C 2,2 C 0,4 C 88 % 93 % 1018,8 hPa 0,0 l/m 0,2 km/h (0 Bft) W-NW 292 0 min 0,0 C 2,2 C 0,0 km/h (0 Bft)
04.03.2021 19:55 1,9 C 7,3 C 2,4 C 2,2 C 2,2 C 0,3 C 88 % 93 % 1018,8 hPa 0,0 l/m 0,0 km/h (0 Bft) N-NW 337 0 min 0,1 C 2,2 C 0,0 km/h (0 Bft)
04.03.2021 20:00 1,9 C 7,3 C 2,3 C 2,2 C 2,2 C 0,3 C 88 % 93 % 1018,8 hPa 0,0 l/m 0,0 km/h (0 Bft) O 90 0 min 0,1 C 2,2 C 0,0 km/h (0 Bft)
04.03.2021 20:05 1,7 C 7,3 C 2,3 C 2,2 C 2,2 C 0,5 C 88 % 93 % 1018,8 hPa 0,0 l/m 0,0 km/h (0 Bft) O 90 0 min -0,1 C 2,2 C 0,0 km/h (0 Bft)
04.03.2021 20:10 1,7 C 7,3 C 2,3 C 2,2 C 2,2 C 0,5 C 88 % 93 % 1018,7 hPa 0,0 l/m 0,0 km/h (0 Bft) W 270 0 min -0,1 C 2,2 C 0,0 km/h (0 Bft)
04.03.2021 20:15 1,7 C 7,3 C 2,3 C 2,2 C 2,2 C 0,5 C 88 % 93 % 1018,7 hPa 0,0 l/m 0,0 km/h (0 Bft) W 270 0 min -0,1 C 2,2 C 0,0 km/h (0 Bft)
04.03.2021 20:20 1,7 C 7,3 C 2,3 C 2,2 C 2,2 C 0,5 C 88 % 93 % 1018,7 hPa 0,0 l/m 0,0 km/h (0 Bft) NW 315 0 min -0,1 C 2,2 C 2,3 km/h (1 Bft)
04.03.2021 20:25 1,6 C 7,3 C 2,3 C 2,2 C 2,2 C 0,6 C 88 % 93 % 1018,7 hPa 0,0 l/m 0,5 km/h (0 Bft) W 270 0 min -0,2 C 2,2 C 0,0 km/h (0 Bft)
04.03.2021 20:30 1,7 C 7,3 C 2,3 C 2,2 C 2,2 C 0,5 C 88 % 93 % 1019,0 hPa 0,0 l/m 0,5 km/h (0 Bft) W 270 0 min -0,1 C 2,2 C 0,0 km/h (0 Bft)
04.03.2021 20:35 1,7 C 7,2 C 2,4 C 2,2 C 2,2 C 0,5 C 88 % 93 % 1019,0 hPa 0,0 l/m 0,0 km/h (0 Bft) W 270 0 min -0,1 C 2,2 C 0,0 km/h (0 Bft)
04.03.2021 20:40 1,6 C 7,2 C 2,4 C 2,3 C 2,3 C 0,7 C 88 % 93 % 1019,0 hPa 0,0 l/m 0,0 km/h (0 Bft) W 270 0 min -0,2 C 2,3 C 0,0 km/h (0 Bft)
04.03.2021 20:45 1,7 C 7,2 C 2,4 C 2,3 C 2,3 C 0,6 C 88 % 93 % 1019,0 hPa 0,0 l/m 0,0 km/h (0 Bft) NW 315 0 min -0,1 C 2,3 C 0,0 km/h (0 Bft)
04.03.2021 20:50 1,6 C 7,2 C 2,4 C 2,3 C 2,3 C 0,7 C 88 % 93 % 1019,1 hPa 0,0 l/m 0,3 km/h (0 Bft) W 270 0 min -0,2 C 2,3 C 0,0 km/h (0 Bft)
04.03.2021 20:55 1,6 C 7,2 C 2,4 C 2,3 C 2,3 C 0,7 C 88 % 93 % 1019,1 hPa 0,0 l/m 0,3 km/h (0 Bft) NW 315 0 min -0,2 C 2,3 C 0,0 km/h (0 Bft)
04.03.2021 21:00 1,7 C 7,2 C 2,4 C 2,3 C 2,3 C 0,6 C 88 % 93 % 1019,1 hPa 0,0 l/m 0,0 km/h (0 Bft) W-NW 292 0 min -0,1 C 2,3 C 0,0 km/h (0 Bft)
04.03.2021 21:05 1,6 C 7,2 C 2,4 C 2,3 C 2,3 C 0,7 C 88 % 93 % 1019,1 hPa 0,0 l/m 0,2 km/h (0 Bft) NW 315 0 min -0,2 C 2,3 C 0,0 km/h (0 Bft)
04.03.2021 21:10 1,6 C 7,2 C 2,4 C 2,3 C 2,3 C 0,7 C 88 % 93 % 1019,1 hPa 0,0 l/m 0,2 km/h (0 Bft) W-NW 292 0 min -0,2 C 2,3 C 0,0 km/h (0 Bft)
04.03.2021 21:15 1,6 C 7,2 C 2,3 C 2,3 C 2,3 C 0,7 C 88 % 93 % 1019,1 hPa 0,0 l/m 0,5 km/h (0 Bft) W-NW 292 0 min -0,2 C 2,3 C 3,9 km/h (1 Bft)
04.03.2021 21:20 1,5 C 7,2 C 2,3 C 2,3 C 2,3 C 0,8 C 88 % 93 % 1019,1 hPa 0,0 l/m 0,6 km/h (0 Bft) NW 315 0 min -0,3 C 2,3 C 0,0 km/h (0 Bft)
04.03.2021 21:25 1,5 C 7,2 C 2,3 C 2,3 C 2,3 C 0,8 C 88 % 93 % 1019,1 hPa 0,0 l/m 0,6 km/h (0 Bft) S 180 0 min -0,3 C 2,3 C 0,0 km/h (0 Bft)
04.03.2021 21:30 1,5 C 7,2 C 2,3 C 2,3 C 2,3 C 0,8 C 88 % 93 % 1019,1 hPa 0,0 l/m 0,5 km/h (0 Bft) W 270 0 min -0,3 C 2,3 C 0,0 km/h (0 Bft)
04.03.2021 21:35 1,5 C 7,2 C 2,3 C 2,3 C 2,3 C 0,8 C 88 % 93 % 1019,1 hPa 0,0 l/m 0,3 km/h (0 Bft) N-NW 337 0 min -0,3 C 2,3 C 1,8 km/h (1 Bft)
04.03.2021 21:40 1,4 C 7,2 C 2,3 C 2,3 C 2,3 C 0,9 C 88 % 93 % 1019,1 hPa 0,0 l/m 1,0 km/h (0 Bft) SW 225 0 min -0,4 C 2,3 C 0,0 km/h (0 Bft)
04.03.2021 21:45 1,5 C 7,2 C 2,3 C 2,2 C 2,2 C 0,7 C 88 % 93 % 1019,1 hPa 0,0 l/m 1,1 km/h (1 Bft) NW 315 0 min -0,3 C 2,2 C 2,3 km/h (1 Bft)
04.03.2021 21:50 1,5 C 7,2 C 2,3 C 2,2 C 2,2 C 0,7 C 88 % 93 % 1019,1 hPa 0,0 l/m 0,8 km/h (0 Bft) N-NW 337 0 min -0,3 C 2,2 C 3,9 km/h (1 Bft)
04.03.2021 21:55 1,5 C 7,2 C 2,3 C 2,2 C 2,2 C 0,7 C 88 % 93 % 1019,1 hPa 0,0 l/m 0,8 km/h (0 Bft) NW 315 0 min -0,3 C 2,2 C 0,0 km/h (0 Bft)
04.03.2021 22:00 1,3 C 7,2 C 2,2 C 2,2 C 2,2 C 0,9 C 88 % 93 % 1019,1 hPa 0,0 l/m 1,8 km/h (1 Bft) W 270 0 min -0,5 C 2,2 C 0,0 km/h (0 Bft)
04.03.2021 22:05 1,3 C 7,2 C 2,1 C 2,1 C 2,1 C 0,8 C 88 % 92 % 1019,1 hPa 0,0 l/m 1,9 km/h (1 Bft) NW 315 0 min -0,5 C 2,1 C 3,1 km/h (1 Bft)
04.03.2021 22:10 1,3 C 7,2 C 2,1 C 2,0 C 2,0 C 0,7 C 88 % 92 % 1019,0 hPa 0,0 l/m 1,1 km/h (1 Bft) NW 315 0 min -0,5 C 2,0 C 0,0 km/h (0 Bft)
04.03.2021 22:15 1,2 C 7,2 C 2,1 C 2,0 C 2,0 C 0,8 C 88 % 93 % 1019,0 hPa 0,0 l/m 1,0 km/h (0 Bft) NW 315 0 min -0,6 C 2,0 C 0,0 km/h (0 Bft)
04.03.2021 22:20 1,2 C 7,1 C 2,0 C 2,0 C 2,0 C 0,8 C 88 % 93 % 1019,0 hPa 0,0 l/m 1,0 km/h (0 Bft) N-NO 22 0 min -0,6 C 2,0 C 2,7 km/h (1 Bft)
04.03.2021 22:25 1,3 C 7,1 C 2,0 C 1,9 C 1,9 C 0,6 C 88 % 93 % 1019,0 hPa 0,0 l/m 1,4 km/h (1 Bft) N-NO 22 0 min -0,5 C 1,9 C 2,9 km/h (1 Bft)
04.03.2021 22:30 1,2 C 7,1 C 1,9 C 1,8 C 1,8 C 0,6 C 88 % 93 % 1019,6 hPa 0,0 l/m 1,8 km/h (1 Bft) NW 315 0 min -0,6 C 1,8 C 3,9 km/h (1 Bft)
04.03.2021 22:35 1,1 C 7,1 C 1,8 C 1,7 C 1,7 C 0,6 C 88 % 93 % 1019,6 hPa 0,0 l/m 1,3 km/h (1 Bft) NW 315 0 min -0,7 C 1,7 C 0,0 km/h (0 Bft)
04.03.2021 22:40 1,1 C 7,1 C 1,8 C 1,7 C 1,7 C 0,6 C 88 % 93 % 1019,6 hPa 0,0 l/m 1,0 km/h (0 Bft) NW 315 0 min -0,7 C 1,7 C 4,7 km/h (1 Bft)
04.03.2021 22:45 0,9 C 7,1 C 1,7 C 1,6 C 1,6 C 0,7 C 88 % 93 % 1019,6 hPa 0,0 l/m 1,1 km/h (1 Bft) N-NO 22 0 min -0,9 C 1,6 C 2,4 km/h (1 Bft)
04.03.2021 22:50 0,8 C 7,1 C 1,7 C 1,5 C 1,5 C 0,7 C 88 % 93 % 1019,2 hPa 0,0 l/m 1,4 km/h (1 Bft) W-NW 292 0 min -1,0 C 1,5 C 0,0 km/h (0 Bft)
04.03.2021 22:55 0,8 C 7,1 C 1,6 C 1,4 C 1,4 C 0,6 C 88 % 93 % 1019,2 hPa 0,7 l/m 1,0 km/h (0 Bft) NW 315 0 min -1,0 C 1,4 C 0,0 km/h (0 Bft)
04.03.2021 23:00 0,8 C 7,1 C 1,6 C 1,4 C 1,4 C 0,6 C 88 % 93 % 1019,2 hPa 0,0 l/m 0,2 km/h (0 Bft) O-SO 112 0 min -1,0 C 1,4 C 0,0 km/h (0 Bft)
04.03.2021 23:05 0,7 C 7,1 C 1,5 C 1,3 C 1,3 C 0,6 C 88 % 93 % 1019,2 hPa 0,0 l/m 0,3 km/h (0 Bft) W-NW 292 0 min -1,1 C 1,3 C 1,8 km/h (1 Bft)
04.03.2021 23:10 0,7 C 7,1 C 1,5 C 1,3 C 1,3 C 0,6 C 88 % 93 % 1019,6 hPa 0,0 l/m 0,3 km/h (0 Bft) NW 315 0 min -1,1 C 1,3 C 0,0 km/h (0 Bft)
04.03.2021 23:15 0,6 C 7,1 C 1,5 C 1,2 C 1,2 C 0,6 C 88 % 93 % 1019,6 hPa 0,0 l/m 0,2 km/h (0 Bft) NW 315 0 min -1,2 C 1,2 C 0,0 km/h (0 Bft)
04.03.2021 23:20 0,7 C 7,1 C 1,5 C 1,2 C 1,2 C 0,5 C 88 % 93 % 1019,6 hPa 0,0 l/m 0,2 km/h (0 Bft) NW 315 0 min -1,1 C 1,2 C 0,0 km/h (0 Bft)
04.03.2021 23:25 0,7 C 7,1 C 1,5 C 1,2 C 1,2 C 0,5 C 88 % 93 % 1019,6 hPa 0,0 l/m 0,0 km/h (0 Bft) W 270 0 min -1,1 C 1,2 C 0,0 km/h (0 Bft)
04.03.2021 23:30 0,7 C 7,1 C 1,5 C 1,3 C 1,3 C 0,6 C 88 % 93 % 1019,4 hPa 0,0 l/m 0,0 km/h (0 Bft) NW 315 0 min -1,1 C 1,3 C 0,0 km/h (0 Bft)
04.03.2021 23:35 0,6 C 7,1 C 1,5 C 1,2 C 1,2 C 0,6 C 88 % 93 % 1019,4 hPa 0,0 l/m 0,0 km/h (0 Bft) NW 315 0 min -1,2 C 1,2 C 0,0 km/h (0 Bft)
04.03.2021 23:40 0,5 C 7,0 C 1,5 C 1,3 C 1,3 C 0,8 C 88 % 93 % 1019,4 hPa 0,0 l/m 0,0 km/h (0 Bft) N-NW 337 0 min -1,3 C 1,3 C 0,0 km/h (0 Bft)
04.03.2021 23:45 0,6 C 7,0 C 1,5 C 1,3 C 1,3 C 0,7 C 88 % 93 % 1019,4 hPa 0,0 l/m 0,0 km/h (0 Bft) W 270 0 min -1,2 C 1,3 C 0,0 km/h (0 Bft)
04.03.2021 23:50 0,5 C 7,0 C 1,5 C 1,2 C 1,2 C 0,7 C 88 % 93 % 1019,3 hPa 0,0 l/m 0,0 km/h (0 Bft) N-NW 337 0 min -1,3 C 1,2 C 0,0 km/h (0 Bft)
04.03.2021 23:55 0,5 C 7,0 C 1,5 C 1,2 C 1,2 C 0,7 C 88 % 93 % 1019,3 hPa 0,0 l/m 0,2 km/h (0 Bft) N-NW 337 0 min -1,3 C 1,2 C 0,0 km/h (0 Bft)
_ Min-Zeit 23:40 08:35 23:05 23:15 23:15 00:00 11:35 11:30 16:30 - 00:00 - - - 23:40 23:15 00:00
Minimum _ 0,5 C 6,5 C 1,5 C 1,2 C 1,2 C 0,0 C 74 % 75 % 1017,9 hPa - 0,0 km/h (0 Bft) - - - -1,3 C 1,2 C 0,0 km/h (0 Bft)
_ Max-Zeit 11:25 15:20 11:25 11:25 11:25 11:20 16:55 16:30 00:00 14:10 11:45 - - 11:20 11:25 11:25 11:50
Maximum _ 10,7 C 7,6 C 11,4 C 14,3 C 14,3 C 3,8 C 88 % 93 % 1025,1 hPa 0,7 l/m 5,1 km/h
S-SW (1 Bft)
- - 5 min 6,8 C 14,3 C 12,7 km/h
SW (3 Bft)
Durchschnitt _ 5,5 C 7,0 C 5,1 C 5,9 C 5,8 C 0,4 C 83 % 88 % 1020,4 hPa #5,5 l/m 0,5 km/h (0 Bft) SW - #15 min. 2,9 C 5,8 C 0,9 km/h (0 Bft)
2021 www.wetterstation-wechselburg.de